Beverly, MA

10:55 PM EDT on July 27, 2017 (GMT -0400)
Beverly Municipal

Weather History for KBVY - February, 2014

Change the Weather History Date:

Thursday, February 27, 2014

  Actual Average Record
Temperature  
Mean Temperature 16 °F -  
Max Temperature 26 °F 36 °F 59 °F (2009)
Min Temperature 6 °F 20 °F 1 °F (2003)
Degree Days  
Heating Degree Days 49    
Moisture  
Dew Point 6 °F    
Average Humidity 57    
Maximum Humidity 84    
Minimum Humidity 34    
Precipitation  
Precipitation 0.01 in - - ()
Sea Level Pressure  
Sea Level Pressure 29.70 in    
Wind  
Wind Speed 6 mph (West)    
Max Wind Speed 21 mph    
Max Gust Speed 34 mph    
Visibility 7 miles    
Events Fog , Snow    
Averages and records for this station are not official NWS values.
T = Trace of Precipitation, MM = Missing Value Source: NWS Daily Summary

Daily Weather History Graph

Daily Weather History Graph

Search for Another Location

Airport or City:

Trip Planner

Search our weather history database for the weather conditions in past years. The results will help you decide how hot, cold, wet, or windy it might be!

Date:

Astronomy

Feb. 27, 2014 Rise Set
Actual Time 6:22 AM EST 5:30 PM EST
Civil Twilight 5:54 AM EST 5:59 PM EST
Nautical Twilight 5:21 AM EST 6:31 PM EST
Astronomical Twilight 4:48 AM EST 7:04 PM EST
Moon 4:54 AM EST (2/27) 3:51 PM EST (2/27)
Length of Visible Light 12h 05m
Length of Day
11h 08m
Waning Crescent, 4% of the Moon is Illuminated
Feb 27
Waning Crescent
Mar 1
New
Mar 8
First Quarter
Mar 16
Full
Mar 23
Last Quarter

Hourly Weather History & Observations

Time (EST) Temp. Windchill Dew Point Humidity Pressure Visibility Wind Dir Wind Speed Gust Speed Precip Events Conditions
12:53 AM 10.9 °F 2.9 °F -6.0 °F 47% 29.86 in 10.0 mi West 4.6 mph - N/A   Clear
1:53 AM 10.9 °F - -7.1 °F 44% 29.86 in 10.0 mi Calm Calm - N/A   Clear
2:53 AM 10.0 °F - -6.0 °F 48% 29.85 in 10.0 mi Calm Calm - N/A   Mostly Cloudy
3:53 AM 9.0 °F -0.9 °F -6.0 °F 51% 29.83 in 10.0 mi WNW 5.8 mph - N/A   Mostly Cloudy
4:53 AM 9.0 °F - -5.1 °F 53% 29.81 in 10.0 mi Calm Calm - N/A   Mostly Cloudy
5:53 AM 7.0 °F - -4.0 °F 61% 29.79 in 10.0 mi Calm Calm - N/A   Clear
6:53 AM 6.1 °F - -5.1 °F 60% 29.76 in 10.0 mi Calm Calm - N/A   Mostly Cloudy
7:53 AM 9.0 °F - -2.0 °F 61% 29.75 in 10.0 mi Calm Calm - N/A   Mostly Cloudy
8:53 AM 12.9 °F - -0.9 °F 54% 29.75 in 10.0 mi Calm Calm - N/A   Scattered Clouds
9:53 AM 19.9 °F 9.3 °F 1.0 °F 44% 29.73 in 10.0 mi South 9.2 mph - N/A   Mostly Cloudy
10:53 AM 21.0 °F 10.6 °F -0.9 °F 38% 29.71 in 10.0 mi South 9.2 mph - 0.00 in   Mostly Cloudy
11:53 AM 24.1 °F 12.0 °F -0.9 °F 34% 29.67 in 10.0 mi SW 13.8 mph - N/A   Clear
12:53 PM 26.1 °F 16.8 °F 1.9 °F 35% 29.60 in 10.0 mi SSW 9.2 mph - N/A   Clear
1:53 PM 26.1 °F 16.2 °F 7.0 °F 44% 29.59 in 10.0 mi SSW 10.4 mph 23.0 mph N/A   Overcast
2:31 PM 25.0 °F 14.2 °F 12.9 °F 60% 29.59 in 2.5 mi West 11.5 mph - 0.00 in Snow Light Snow
2:40 PM 25.0 °F 14.2 °F 14.0 °F 63% 29.60 in 4.0 mi WSW 11.5 mph - 0.00 in Snow Light Snow
2:47 PM 24.8 °F 14.6 °F 15.8 °F 69% 29.60 in 1.8 mi NW 10.4 mph - 0.00 in Snow Light Snow
2:53 PM 24.1 °F 14.4 °F 16.0 °F 71% 29.60 in 1.2 mi NNW 9.2 mph - 0.00 in Snow Light Snow
3:00 PM 24.1 °F 15.2 °F 16.0 °F 71% 29.60 in 1.5 mi West 8.1 mph - 0.00 in Snow Light Snow
3:16 PM 24.1 °F 13.7 °F 19.0 °F 81% 29.61 in 0.5 mi West 10.4 mph - 0.00 in Snow Snow
3:24 PM 24.1 °F 14.4 °F 19.9 °F 84% 29.61 in 0.2 mi West 9.2 mph - 0.00 in Fog , Snow Heavy Snow
3:33 PM 24.1 °F 16.0 °F 19.9 °F 84% 29.62 in 0.5 mi West 6.9 mph - 0.00 in Fog , Snow Snow
3:43 PM 24.1 °F 17.0 °F 19.9 °F 84% 29.62 in 1.0 mi WNW 5.8 mph - 0.01 in Snow Light Snow
3:53 PM 25.0 °F 18.1 °F 19.9 °F 81% 29.61 in 2.0 mi Variable 5.8 mph - 0.01 in Snow Light Snow
4:00 PM 24.1 °F 17.0 °F 18.0 °F 77% 29.61 in 8.0 mi WSW 5.8 mph - 0.00 in Snow Light Snow
4:53 PM 26.1 °F 15.6 °F 5.0 °F 41% 29.62 in 10.0 mi WNW 11.5 mph 19.6 mph 0.00 in   Scattered Clouds
5:53 PM 24.1 °F 16.0 °F 1.9 °F 38% 29.65 in 10.0 mi NW 6.9 mph - N/A   Clear
6:53 PM 19.0 °F 12.3 °F 1.0 °F 46% 29.67 in 10.0 mi SW 4.6 mph - N/A   Clear
7:53 PM 19.0 °F 12.3 °F 3.0 °F 50% 29.70 in 10.0 mi WSW 4.6 mph - N/A   Clear
8:53 PM 21.0 °F 5.4 °F 9.0 °F 60% 29.75 in 6.0 mi NW 20.7 mph 34.5 mph 0.00 in Snow Light Snow
9:53 PM 21.0 °F 8.1 °F 7.0 °F 55% 29.78 in 10.0 mi WNW 13.8 mph 19.6 mph 0.00 in   Overcast
10:53 PM 19.9 °F 5.2 °F 1.9 °F 46% 29.83 in 10.0 mi West 17.3 mph 24.2 mph 0.00 in   Overcast
11:53 PM 16.0 °F 0.6 °F -0.9 °F 47% 29.87 in 10.0 mi WNW 16.1 mph 27.6 mph 0.00 in   Scattered Clouds